Lewisburg, WV

8:34 PM EST on November 17, 2019 (GMT -0500)
Greenbrier Valley

Weather History for KLWB - September, 2019

Change the Weather History Date:

Thursday, September 19, 2019

  Actual Average Record
Temperature  
Mean Temperature 58 °F -  
Max Temperature 72 °F 75 °F 88 °F (2010)
Min Temperature 45 °F 53 °F 36 °F (2004)
Degree Days  
Heating Degree Days 7    
Growing Degree Days 8 (Base 50)    
Moisture  
Dew Point 48 °F    
Average Humidity 69    
Maximum Humidity 100    
Minimum Humidity 42    
Precipitation  
Precipitation 0.00 in - - ()
Sea Level Pressure  
Sea Level Pressure 30.30 in    
Wind  
Wind Speed 3 mph (SE)    
Max Wind Speed 12 mph    
Max Gust Speed 17 mph    
Visibility 10 miles    
Events      
Averages and records for this station are not official NWS values.
T = Trace of Precipitation, MM = Missing Value Source: NWS Daily Summary

Daily Weather History Graph

Daily Weather History Graph

Search for Another Location

Airport or City:

Astronomy

Sep. 19, 2019 Rise Set
Actual Time 7:06 AM EDT 7:23 PM EDT
Civil Twilight 6:40 AM EDT 7:49 PM EDT
Nautical Twilight 6:09 AM EDT 8:20 PM EDT
Astronomical Twilight 5:38 AM EDT 8:51 PM EDT
Moon 10:37 PM EDT (9/19) 12:03 PM EDT (9/19)
Length of Visible Light 13h 09m
Length of Day
12h 16m
Waning Gibbous, 74% of the Moon is Illuminated
Sep 19
Waning Gibbous
Sep 21
Last Quarter
Sep 28
New
Oct 5
First Quarter
Oct 13
Full

Hourly Weather History & Observations

Time (EDT) Temp. Dew Point Humidity Pressure Visibility Wind Dir Wind Speed Gust Speed Precip Events Conditions
12:15 AM 60.4 °F 51.3 °F 72% 30.26 in 10.0 mi ESE 3.5 mph - N/A   Clear
12:35 AM 60.1 °F 50.9 °F 72% 30.26 in 10.0 mi East 3.5 mph - N/A   Clear
12:55 AM 60.1 °F 50.7 °F 71% 30.26 in 10.0 mi Calm Calm - N/A   Clear
1:15 AM 58.6 °F 50.4 °F 74% 30.27 in 10.0 mi Calm Calm - N/A   Clear
1:35 AM 57.6 °F 50.4 °F 77% 30.27 in 10.0 mi Calm Calm - N/A   Clear
1:55 AM 57.2 °F 50.5 °F 78% 30.27 in 10.0 mi Calm Calm - N/A   Clear
2:15 AM 54.9 °F 50.2 °F 84% 30.28 in 10.0 mi Calm Calm - N/A   Clear
2:35 AM 53.2 °F 49.3 °F 86% 30.27 in 10.0 mi Calm Calm - N/A   Clear
2:55 AM 52.9 °F 50.0 °F 90% 30.27 in 10.0 mi Calm Calm - N/A   Clear
3:15 AM 52.0 °F 50.2 °F 94% 30.27 in 10.0 mi Calm Calm - N/A   Clear
3:35 AM 50.7 °F 49.3 °F 95% 30.28 in 10.0 mi Calm Calm - N/A   Clear
3:55 AM 51.1 °F 49.8 °F 95% 30.28 in 10.0 mi Calm Calm - N/A   Clear
4:35 AM 49.6 °F 49.1 °F 98% 30.28 in 10.0 mi Calm Calm - N/A   Clear
4:55 AM 47.8 °F 46.9 °F 97% 30.28 in 10.0 mi Calm Calm - N/A   Clear
5:15 AM 48.9 °F 48.6 °F 99% 30.28 in 7.0 mi Calm Calm - N/A   Clear
5:35 AM 48.2 °F 47.7 °F 98% 30.28 in 10.0 mi Calm Calm - N/A   Clear
5:55 AM 46.8 °F 46.4 °F 99% 30.28 in 10.0 mi Calm Calm - N/A   Clear
6:15 AM 47.5 °F 47.3 °F 99% 30.29 in 5.0 mi Calm Calm - N/A   Clear
6:35 AM 46.4 °F 46.4 °F 100% 30.29 in 1.8 mi Calm Calm - N/A   Mist
6:55 AM 46.4 °F 46.2 °F 99% 30.29 in 3.0 mi Calm Calm - N/A   Clear
7:15 AM 45.5 °F 45.5 °F 100% 30.30 in 7.0 mi Calm Calm - N/A   Clear
7:35 AM 45.9 °F 45.7 °F 99% 30.31 in 10.0 mi Calm Calm - N/A   Clear
7:55 AM 48.6 °F 48.2 °F 99% 30.31 in 10.0 mi Calm Calm - N/A   Clear
8:15 AM 46.9 °F 46.2 °F 97% 30.32 in 10.0 mi Calm Calm - N/A   Clear
8:55 AM 53.4 °F 51.4 °F 93% 30.33 in 10.0 mi NNE 3.5 mph - N/A   Scattered Clouds
9:15 AM 56.7 °F 52.9 °F 87% 30.33 in 10.0 mi Calm Calm - N/A   Clear
9:35 AM 60.3 °F 52.2 °F 75% 30.33 in 10.0 mi South 4.6 mph - N/A   Clear
9:55 AM 61.3 °F 50.4 °F 67% 30.33 in 10.0 mi SE 6.9 mph - N/A   Clear
10:15 AM 63.1 °F 48.9 °F 60% 30.33 in 10.0 mi SSE 8.1 mph - N/A   Scattered Clouds
10:35 AM 63.0 °F 48.6 °F 59% 30.33 in 10.0 mi SE 5.8 mph - N/A   Mostly Cloudy
10:55 AM 61.9 °F 48.4 °F 61% 30.33 in 10.0 mi ESE 6.9 mph - N/A   Mostly Cloudy
11:15 AM 63.0 °F 47.7 °F 57% 30.34 in 10.0 mi South 8.1 mph - N/A   Overcast
11:35 AM 63.0 °F 48.7 °F 60% 30.34 in 10.0 mi SSW 6.9 mph - N/A   Overcast
11:55 AM 64.0 °F 48.4 °F 57% 30.34 in 10.0 mi SSE 8.1 mph - N/A   Overcast
12:15 PM 65.8 °F 47.7 °F 52% 30.33 in 10.0 mi South 11.5 mph - N/A   Mostly Cloudy
12:35 PM 67.8 °F 47.8 °F 49% 30.33 in 10.0 mi SSE 8.1 mph - N/A   Scattered Clouds
12:55 PM 68.0 °F 47.8 °F 48% 30.32 in 10.0 mi SSE 4.6 mph 17.3 mph N/A   Clear
1:15 PM 68.0 °F 46.8 °F 47% 30.31 in 10.0 mi SSE 4.6 mph - N/A   Clear
1:35 PM 69.1 °F 46.9 °F 45% 30.31 in 10.0 mi SE 5.8 mph - N/A   Clear
1:55 PM 69.6 °F 47.1 °F 45% 30.30 in 10.0 mi South 4.6 mph - N/A   Clear
2:15 PM 70.2 °F 47.1 °F 44% 30.30 in 10.0 mi SW 3.5 mph - N/A   Clear
2:35 PM 70.0 °F 46.6 °F 43% 30.30 in 10.0 mi ESE 5.8 mph - N/A   Clear
2:55 PM 70.9 °F 47.1 °F 43% 30.29 in 10.0 mi SSW 9.2 mph - N/A   Clear
3:15 PM 71.6 °F 47.5 °F 42% 30.28 in 10.0 mi SE 3.5 mph - N/A   Clear
3:35 PM 71.8 °F 48.0 °F 43% 30.28 in 10.0 mi SE 6.9 mph - N/A   Clear
3:55 PM 71.8 °F 48.2 °F 43% 30.27 in 10.0 mi ENE 6.9 mph - N/A   Clear
4:15 PM 71.8 °F 48.4 °F 43% 30.27 in 10.0 mi East 8.1 mph - N/A   Clear
4:35 PM 71.4 °F 48.4 °F 44% 30.27 in 10.0 mi SE 5.8 mph - N/A   Clear
4:55 PM 70.7 °F 48.4 °F 45% 30.27 in 10.0 mi East 6.9 mph - N/A   Clear
5:15 PM 70.9 °F 48.4 °F 45% 30.27 in 10.0 mi ESE 8.1 mph - N/A   Clear
5:35 PM 69.8 °F 48.0 °F 46% 30.27 in 10.0 mi SE 4.6 mph - N/A   Clear
5:55 PM 69.4 °F 47.8 °F 46% 30.27 in 10.0 mi SE 5.8 mph - N/A   Clear
6:15 PM 68.5 °F 47.5 °F 47% 30.27 in 10.0 mi SSE 4.6 mph - N/A   Clear
6:35 PM 67.3 °F 47.1 °F 48% 30.28 in 10.0 mi SE 5.8 mph - N/A   Clear
6:55 PM 65.8 °F 48.4 °F 53% 30.28 in 10.0 mi ESE 4.6 mph - N/A   Clear
7:15 PM 64.0 °F 48.6 °F 57% 30.28 in 10.0 mi ESE 5.8 mph - N/A   Clear
7:35 PM 62.6 °F 48.4 °F 60% 30.29 in 10.0 mi ESE 3.5 mph - N/A   Clear
7:55 PM 61.9 °F 48.2 °F 61% 30.29 in 10.0 mi ESE 4.6 mph - N/A   Clear
8:15 PM 61.2 °F 48.4 °F 63% 30.30 in 10.0 mi Calm Calm - N/A   Clear
8:35 PM 60.8 °F 48.6 °F 64% 30.30 in 10.0 mi SE 4.6 mph - N/A   Clear
8:55 PM 59.9 °F 48.4 °F 66% 30.31 in 10.0 mi Calm Calm - N/A   Clear
9:15 PM 59.4 °F 48.4 °F 67% 30.31 in 10.0 mi SSE 4.6 mph - N/A   Clear
9:35 PM 59.0 °F 48.4 °F 68% 30.31 in 10.0 mi Calm Calm - N/A   Clear
9:55 PM 59.0 °F 48.2 °F 67% 30.31 in 10.0 mi Calm Calm - N/A   Clear
10:15 PM 58.5 °F 47.8 °F 68% 30.32 in 10.0 mi Calm Calm - N/A   Clear
10:35 PM 56.8 °F 48.2 °F 73% 30.32 in 10.0 mi Calm Calm - N/A   Clear
10:55 PM 56.3 °F 48.2 °F 74% 30.32 in 10.0 mi Calm Calm - N/A   Clear
11:15 PM 53.2 °F 47.5 °F 81% 30.32 in 10.0 mi Calm Calm - N/A   Clear
11:35 PM 53.2 °F 47.8 °F 82% 30.32 in 10.0 mi Calm Calm - N/A   Clear
11:55 PM 50.5 °F 46.8 °F 87% 30.32 in 10.0 mi Calm Calm - N/A   Clear